Weather History for Lanai City, HI

Change the Weather History Date:

Friday, June 21, 2013

  Actual Average Record
Temperature  
Mean Temperature 75 °F -  
Max Temperature 82 °F 81 °F 87 °F (1993)
Min Temperature 68 °F 65 °F 60 °F (1954)
Cooling Degree Days 10    
Growing Degree Days 25 (Base 50)    
Moisture  
Dew Point 66 °F    
Average Humidity 75    
Maximum Humidity 94    
Minimum Humidity 54    
Precipitation  
Precipitation 0.01 in - - ()
Sea Level Pressure  
Sea Level Pressure 30.06 in    
Wind  
Wind Speed 11 mph (NE)    
Max Wind Speed 24 mph    
Max Gust Speed 28 mph    
Visibility 9 miles    
Events Rain    
Averages and records for this station are not official NWS values.
T = Trace of Precipitation, MM = Missing Value Source: NWS Daily Summary

Daily Weather History Graph

Daily Weather History Graph

Search for Another Location

Airport:

Trip Planner

Search our weather history database for the weather conditions in past years. The results will help you decide how hot, cold, wet, or windy it might be!

Date:

Astronomy

Jun. 21, 2013 Rise Set
Actual Time 5:47 AM HST 7:11 PM HST
Civil Twilight 5:23 AM HST 7:36 PM HST
Nautical Twilight 4:53 AM HST 8:05 PM HST
Astronomical Twilight 4:23 AM HST 8:36 PM HST
Moon 5:41 PM HST (6/21) 4:04 AM HST (6/21)
Length of Visible Light 14h 13m
Length of Day
13h 23m
Waxing Gibbous, 96% of the Moon is Illuminated
Jun 21
Waxing Gibbous
Jun 23
Full
Jun 29
Last Quarter
Jul 7
New
Jul 15
First Quarter

Hourly Weather History & Observations

Time (HST) Temp. Heat Index Dew Point Humidity Pressure Visibility Wind Dir Wind Speed Gust Speed Precip Events Conditions
12:56 AM 70.9 °F - 63.9 °F 78% 30.04 in 10.0 mi NNE 9.2 mph - N/A   Overcast
1:56 AM 70.0 °F - 64.9 °F 84% 30.03 in 10.0 mi ENE 8.1 mph - N/A   Partly Cloudy
2:56 AM 68.9 °F - 64.9 °F 87% 30.02 in 10.0 mi NE 11.5 mph - N/A   Scattered Clouds
3:56 AM 70.0 °F - 64.9 °F 84% 30.01 in 10.0 mi NE 11.5 mph - N/A   Overcast
4:56 AM 69.8 °F - 64.4 °F 83% 30.08 in 10.0 mi NE 6.9 mph - N/A   Overcast
5:56 AM 68.9 °F - 64.9 °F 87% 30.02 in 10.0 mi ENE 6.9 mph - N/A   Mostly Cloudy
6:56 AM 70.9 °F - 64.9 °F 81% 30.04 in 10.0 mi ENE 4.6 mph - N/A   Scattered Clouds
7:56 AM 74.8 °F - 64.9 °F 71% 30.05 in 10.0 mi ENE 5.8 mph - N/A   Clear
8:33 AM 78.8 °F - 64.4 °F 61% 30.11 in 10.0 mi NE 10.4 mph - N/A   Mostly Cloudy
8:49 AM 78.8 °F - 64.4 °F 61% 30.11 in 10.0 mi NE 13.8 mph - N/A   Scattered Clouds
8:56 AM 79.0 °F - 64.9 °F 62% 30.05 in 10.0 mi NE 9.2 mph - N/A   Partly Cloudy
9:56 AM 81.9 °F 83.2 °F 63.9 °F 54% 30.04 in 10.0 mi NE 18.4 mph - N/A   Mostly Cloudy
10:31 AM 78.8 °F - 64.4 °F 61% 30.11 in 10.0 mi South 6.9 mph - N/A   Mostly Cloudy
10:56 AM 78.8 °F - 64.4 °F 61% 30.10 in 10.0 mi NE 12.7 mph 18.4 mph N/A   Overcast
11:16 AM 77.0 °F - 66.2 °F 69% 30.10 in 10.0 mi NNE 17.3 mph - 0.00 in Rain Light Rain
11:29 AM 78.8 °F - 66.2 °F 65% 30.10 in 10.0 mi NE 20.7 mph - 0.00 in Rain Light Rain
11:56 AM 79.0 °F - 66.9 °F 66% 30.02 in 10.0 mi NE 24.2 mph 27.6 mph 0.00 in Rain Light Rain
12:56 PM 79.9 °F - 66.9 °F 64% 30.01 in 10.0 mi NNE 23.0 mph 26.5 mph 0.00 in   Clear
1:56 PM 82.4 °F 84.6 °F 66.2 °F 58% 30.07 in 10.0 mi NE 13.8 mph 24.2 mph N/A   Scattered Clouds
2:56 PM 81.0 °F 83.0 °F 65.8 °F 60% 29.99 in 10.0 mi NNE 15.0 mph - 0.00 in   Overcast
3:06 PM 80.6 °F 82.7 °F 66.2 °F 61% 30.05 in 10.0 mi NE 15.0 mph - N/A   Mostly Cloudy
3:30 PM 80.6 °F 82.7 °F 66.2 °F 61% 30.05 in 10.0 mi NE 15.0 mph - N/A   Mostly Cloudy
3:56 PM 79.9 °F - 68.0 °F 67% 29.99 in 10.0 mi Variable 6.9 mph - N/A   Overcast
4:37 PM 77.0 °F - 66.2 °F 69% 30.04 in 10.0 mi NE 19.6 mph - 0.00 in   Mostly Cloudy
4:56 PM 75.2 °F - 66.2 °F 73% 30.04 in 10.0 mi NE 19.6 mph - N/A   Mostly Cloudy
5:56 PM 72.9 °F - 66.9 °F 82% 29.99 in 10.0 mi NE 17.3 mph - N/A   Mostly Cloudy
6:33 PM 73.4 °F - 66.2 °F 78% 30.06 in 10.0 mi ENE 6.9 mph - N/A   Overcast
6:56 PM 73.9 °F - 66.9 °F 79% 30.01 in 10.0 mi NE 9.2 mph - N/A   Overcast
7:04 PM 71.6 °F - 66.2 °F 83% 30.07 in 4.0 mi NNE 16.1 mph - 0.00 in Rain Light Rain
7:13 PM 71.6 °F - 66.2 °F 83% 30.07 in 2.0 mi NNE 12.7 mph - 0.01 in Rain Rain
7:21 PM 69.8 °F - 66.2 °F 88% 30.08 in 1.5 mi NE 8.1 mph - 0.01 in Rain Rain
7:26 PM 69.8 °F - 66.2 °F 88% 30.08 in 3.0 mi NE 10.4 mph - 0.01 in Rain Light Rain
7:56 PM 71.6 °F - 68.0 °F 88% 30.08 in 10.0 mi ENE 9.2 mph - N/A   Overcast
8:11 PM 69.8 °F - 68.0 °F 94% 30.09 in 10.0 mi NE 11.5 mph - 0.01 in   Overcast
8:56 PM 70.9 °F - 66.9 °F 87% 30.04 in 10.0 mi ENE 4.6 mph - 0.01 in   Overcast
9:56 PM 70.0 °F - 65.8 °F 87% 30.05 in 10.0 mi NNE 6.9 mph - N/A   Mostly Cloudy
10:06 PM 69.8 °F - 64.4 °F 83% 30.12 in 10.0 mi NE 6.9 mph - N/A   Scattered Clouds
10:56 PM 69.8 °F - 66.2 °F 88% 30.11 in 10.0 mi NE 15.0 mph 19.6 mph N/A   Scattered Clouds
11:56 PM 70.0 °F - 64.9 °F 84% 30.04 in 10.0 mi East 8.1 mph - N/A   Scattered Clouds